Weather History for San Jose, Costa Rica

Change the Weather History Date:

Wednesday, September 26, 2012

  Actual Average Record
Temperature  
Mean Temperature 72 °F -  
Max Temperature 82 °F 78 °F 84 °F (2002)
Min Temperature 63 °F 64 °F 32 °F (2005)
Cooling Degree Days 8    
Growing Degree Days 22 (Base 50)    
Moisture  
Dew Point 65 °F    
Average Humidity 79    
Maximum Humidity 94    
Minimum Humidity 44    
Precipitation  
Precipitation 0.08 in 0.44 in - ()
Sea Level Pressure  
Sea Level Pressure 29.95 in    
Wind  
Wind Speed 5 mph ()    
Max Wind Speed 13 mph    
Max Gust Speed -    
Visibility 6.6 miles    
Events Fog , Rain , Thunderstorm    
Averages and records for this station are not official NWS values.
T = Trace of Precipitation, MM = Missing Value Source: Averaged Metar Reports

Daily Weather History Graph

Daily Weather History Graph

Search for Another Location

Airport:

Trip Planner

Search our weather history database for the weather conditions in past years. The results will help you decide how hot, cold, wet, or windy it might be!

Date:

Astronomy

Sep. 26, 2012 Rise Set
Actual Time 5:25 AM CST 5:30 PM CST
Civil Twilight 5:04 AM CST 5:51 PM CST
Nautical Twilight 4:40 AM CST 6:15 PM CST
Astronomical Twilight 4:15 AM CST 6:39 PM CST
Moon 3:02 PM CST (9/26) 2:23 AM CST (9/26)
Length of Visible Light 12h 46m
Length of Day
12h 04m
Waxing Gibbous, 88% of the Moon is Illuminated
Sep 26
Waxing Gibbous
Sep 29
Full
Oct 8
Last Quarter
Oct 15
New
Oct 21
First Quarter

Hourly Weather History & Observations

Time (CST) Temp. Heat Index Dew Point Humidity Pressure Visibility Wind Dir Wind Speed Gust Speed Precip Events Conditions
12:00 AM 66 °F - 63 °F 85% 29.83 in 12 mi NNE 3.5 mph - -  
12:00 AM 66.2 °F - 62.6 °F 88% 29.98 in - NNE 3.5 mph - N/A   Clear
1:00 AM 66.2 °F - 62.6 °F 88% 29.97 in - NE 4.6 mph - N/A   Clear
2:00 AM 64.4 °F - 62.6 °F 94% 29.95 in - NE 3.5 mph - N/A   Clear
3:00 AM 65 °F - 61 °F 83% 29.82 in 12 mi NE 8.1 mph - -   Partly Cloudy
3:00 AM 64.4 °F - 60.8 °F 88% 29.95 in - NE 8.1 mph - N/A   Clear
4:00 AM 66.2 °F - 60.8 °F 83% 29.96 in - NNE 9.2 mph - N/A   Clear
5:00 AM 66.2 °F - 60.8 °F 83% 29.97 in - NE 6.9 mph - N/A   Clear
6:00 AM 67 °F - 60 °F 72% 29.86 in 12 mi NE 5.8 mph - -   Clear
6:00 AM 66.2 °F - 60.8 °F 83% 29.98 in - NE 5.8 mph - N/A   Clear
7:00 AM 73.4 °F - 60.8 °F 65% 29.99 in - East 6.9 mph - N/A   Clear
8:00 AM 77.0 °F - 60.8 °F 57% 30.04 in 6.2 mi SE 6.9 mph - N/A   Partly Cloudy
9:00 AM 79 °F - 61 °F 44% 29.86 in 12 mi ESE 8.1 mph - -   Scattered Clouds
9:00 AM 78.8 °F - 60.8 °F 54% 30.04 in 6.2 mi ESE 8.1 mph - N/A   Partly Cloudy
10:00 AM 82.4 °F 82.9 °F 60.8 °F 48% 30.02 in 6.2 mi East 5.8 mph - N/A   Partly Cloudy
11:00 AM 78.8 °F - 68.0 °F 69% 30.01 in 6.2 mi WSW 11.5 mph - N/A   Scattered Clouds
12:00 PM 79 °F - 69 °F 63% 29.85 in 12 mi WSW 12.7 mph - -   Partly Cloudy
12:00 PM 78.8 °F - 68.0 °F 69% 29.99 in - North - - N/A   Scattered Clouds
1:00 PM 78.8 °F - 69.8 °F 74% 29.96 in 6.2 mi WSW 10.4 mph - N/A   Scattered Clouds
2:00 PM 77.0 °F - 69.8 °F 78% 29.94 in 6.2 mi WSW 11.5 mph - N/A   Scattered Clouds
3:00 PM 76 °F - 68 °F 70% 29.79 in 3 mi WSW 8.1 mph - - Rain Heavy Rain Showers
3:00 PM 77.0 °F - 68.0 °F 74% 29.94 in 5.6 mi WSW 8.1 mph - N/A Rain , Thunderstorm Rain Showers
4:00 PM 71.6 °F - 64.4 °F 78% 29.96 in 6.2 mi SSW 3.5 mph - N/A Rain , Thunderstorm Light Rain Showers
4:43 PM 71.6 °F - 68.0 °F 88% 29.97 in 5.6 mi WSW 3.5 mph - N/A Rain Light Rain
5:00 PM 71.6 °F - 68.0 °F 88% 29.98 in 5.6 mi SW 4.6 mph - N/A   Mostly Cloudy
5:27 PM 69.8 °F - 68.0 °F 94% 29.99 in 2.5 mi SW 5.8 mph - N/A   Light Drizzle
6:00 PM 69 °F - 67 °F 93% 29.87 in 1 mi WSW 5.8 mph - -   Mist
6:00 PM 69.8 °F - 68.0 °F 94% 30.01 in 3.1 mi WSW 5.8 mph - N/A   Mostly Cloudy
7:00 PM 69.8 °F - 68.0 °F 94% 30.02 in 5.0 mi WSW 2.3 mph - N/A Fog Mostly Cloudy
8:00 PM 69.8 °F - 68.0 °F 94% 30.01 in 5.0 mi Variable 2.3 mph - N/A Fog Mostly Cloudy
9:00 PM 69 °F - 67 °F 90% 29.86 in 7 mi ENE 2.3 mph - -   Partly Cloudy
9:00 PM 69.8 °F - 66.2 °F 88% 30.02 in 6.2 mi ENE 2.3 mph - N/A Fog Mostly Cloudy
10:00 PM 68.0 °F - 66.2 °F 94% 30.01 in 6.2 mi NE 3.5 mph - N/A   Mostly Cloudy
11:00 PM 69.8 °F - 64.4 °F 83% 30.02 in - ENE 2.3 mph - N/A   Clear